Weather History for Kansas City International, MO

Change the Weather History Date:

Tuesday, December 4, 2012

  Actual Average Record
Temperature  
Mean Temperature 48 °F 35 °F  
Max Temperature 62 °F 44 °F 69 °F (2001)
Min Temperature 34 °F 26 °F 6 °F (1898)
Degree Days  
Heating Degree Days 17 30  
Month to date heating degree days 40 119  
Since 1 July heating degree days 987 1121  
Cooling Degree Days 0 0  
Month to date cooling degree days 0 0  
Year to date cooling degree days 1839 1360  
Moisture  
Dew Point 26 °F    
Average Humidity 48    
Maximum Humidity 75    
Minimum Humidity 21    
Precipitation  
Precipitation 0.00 in 0.06 in 2.16 in (1944)
Month to date precipitation T 0.24  
Year to date precipitation 20.94 37.57  
Snow  
Snow 0.00 in 0.10 in 4.30 in (1925)
Month to date snowfall 0.0 0.5  
Since 1 July snowfall T 1.9  
Snow Depth 0.00 in    
Sea Level Pressure  
Sea Level Pressure 30.23 in    
Wind  
Wind Speed 5 mph (West)    
Max Wind Speed 10 mph    
Max Gust Speed 12 mph    
Visibility 10 miles    
Events      
T = Trace of Precipitation, MM = Missing Value Source: NWS Daily Summary

Daily Weather History Graph

Daily Weather History Graph

Search for Another Location

Airport:

Trip Planner

Search our weather history database for the weather conditions in past years. The results will help you decide how hot, cold, wet, or windy it might be!

Date:

Astronomy

Dec. 04, 2012 Rise Set
Actual Time 7:22 AM CST 4:55 PM CST
Civil Twilight 6:53 AM CST 5:25 PM CST
Nautical Twilight 6:19 AM CST 5:58 PM CST
Astronomical Twilight 5:47 AM CST 6:31 PM CST
Moon 10:42 PM CST (12/4) 11:18 AM CST (12/4)
Length of Visible Light 10h 32m
Length of Day
9h 32m
Waning Gibbous, 69% of the Moon is Illuminated
Dec 4
Waning Gibbous
Dec 6
Last Quarter
Dec 13
New
Dec 19
First Quarter
Dec 28
Full

Hourly Weather History & Observations

Time (CST) Temp. Windchill Dew Point Humidity Pressure Visibility Wind Dir Wind Speed Gust Speed Precip Events Conditions
12:53 AM 46.0 °F 41.9 °F 30.9 °F 56% 30.06 in 10.0 mi NW 8.1 mph - N/A   Scattered Clouds
1:53 AM 45.0 °F 40.6 °F 30.9 °F 58% 30.08 in 10.0 mi NNW 8.1 mph - N/A   Partly Cloudy
2:53 AM 44.1 °F 40.1 °F 30.0 °F 58% 30.12 in 10.0 mi NNW 6.9 mph - N/A   Partly Cloudy
3:53 AM 41.0 °F 36.4 °F 30.0 °F 65% 30.14 in 10.0 mi NW 6.9 mph - N/A   Scattered Clouds
4:53 AM 39.9 °F 33.9 °F 30.0 °F 68% 30.16 in 10.0 mi NW 9.2 mph - N/A   Mostly Cloudy
5:53 AM 34.0 °F 31.0 °F 27.0 °F 75% 30.20 in 10.0 mi WNW 3.5 mph - N/A   Partly Cloudy
6:53 AM 34.0 °F 28.8 °F 27.0 °F 75% 30.22 in 10.0 mi NW 5.8 mph - N/A   Partly Cloudy
7:53 AM 36.0 °F 30.3 °F 27.0 °F 70% 30.25 in 10.0 mi WNW 6.9 mph - N/A   Mostly Cloudy
8:53 AM 41.0 °F 39.0 °F 30.0 °F 65% 30.27 in 10.0 mi WNW 3.5 mph - N/A   Scattered Clouds
9:53 AM 48.0 °F - 28.9 °F 48% 30.27 in 10.0 mi Calm Calm - N/A   Partly Cloudy
10:53 AM 53.1 °F - 28.9 °F 40% 30.28 in 10.0 mi NW 3.5 mph - N/A   Partly Cloudy
11:53 AM 57.2 °F - 28.4 °F 33% 30.26 in 10.0 mi WNW 3.5 mph - N/A   Partly Cloudy
12:53 PM 60.1 °F - 24.1 °F 25% 30.25 in 10.0 mi West 3.5 mph - N/A   Partly Cloudy
1:53 PM 61.0 °F - 23.0 °F 23% 30.24 in 10.0 mi WSW 8.1 mph - N/A   Scattered Clouds
2:53 PM 62.1 °F - 23.0 °F 22% 30.24 in 10.0 mi West 5.8 mph - N/A   Clear
3:53 PM 60.1 °F - 21.9 °F 23% 30.25 in 10.0 mi West 4.6 mph - N/A   Partly Cloudy
4:53 PM 57.9 °F - 21.0 °F 24% 30.25 in 10.0 mi WSW 3.5 mph - N/A   Scattered Clouds
5:53 PM 54.0 °F - 19.9 °F 26% 30.28 in 10.0 mi SW 4.6 mph - N/A   Scattered Clouds
6:53 PM 51.1 °F - 21.9 °F 32% 30.29 in 10.0 mi SSW 4.6 mph - N/A   Scattered Clouds
7:53 PM 50.0 °F - 21.9 °F 33% 30.29 in 10.0 mi SSW 4.6 mph - N/A   Scattered Clouds
8:53 PM 50.0 °F - 21.9 °F 33% 30.29 in 10.0 mi SSW 5.8 mph - N/A   Scattered Clouds
9:53 PM 50.0 °F - 21.9 °F 33% 30.29 in 10.0 mi SW 5.8 mph - N/A   Scattered Clouds
10:53 PM 44.1 °F 40.1 °F 23.0 °F 43% 30.28 in 10.0 mi South 6.9 mph - N/A   Scattered Clouds
11:53 PM 46.9 °F - 21.9 °F 37% 30.31 in 10.0 mi SSW 5.8 mph - N/A   Scattered Clouds